Location: Newark
(6.9000°N, 10.0000°E)
Time: 02:24:32
(UTC+00:00)

ISS - Visible Passes

Search period start: 17 October 2019 00:00
Search period end: 27 October 2019 00:00
Orbit: 411 x 421 km, 51.6° (Epoch: 16 October)

Date Brightness Start Highest point End Pass type
(mag) Time Alt. Az. Time Alt. Az. Time Alt. Az.
18 Oct -1.1 04:42:19 10° S 04:45:05 24° SE 04:47:50 10° ENE visible
19 Oct -0.3 03:55:45 10° SE 03:56:34 11° SE 03:57:23 10° ESE visible
20 Oct -3.7 04:41:14 10° SW 04:44:33 60° NW 04:47:51 10° NNE visible
21 Oct -2.9 03:53:20 14° SSW 03:56:02 50° SE 03:59:17 10° NE visible
22 Oct -0.8 03:08:54 16° E 03:08:54 16° E 03:10:08 10° ENE visible
22 Oct -1.7 04:42:31 10° W 04:44:06 13° NW 04:45:40 10° NNW visible
23 Oct -1.9 03:57:10 18° N 03:57:10 18° N 03:58:26 10° N visible
